Weather History for KBDH - January, 2013

Change the Weather History Date:

Wednesday, January 23, 2013

  Actual Average (KLJF) Record (KLJF)
Temperature  
Mean Temperature -2 °F -  
Max Temperature 6 °F 23 °F 50 °F (1981)
Min Temperature -9 °F 4 °F -26 °F (1963)
Degree Days  
Heating Degree Days 66    
Moisture  
Dew Point -7 °F    
Average Humidity 71    
Maximum Humidity 85    
Minimum Humidity 55    
Precipitation  
Precipitation 0.00 in - - ()
Sea Level Pressure  
Sea Level Pressure 30.31 in    
Wind  
Wind Speed 8 mph (NW)    
Max Wind Speed 28 mph    
Max Gust Speed 33 mph    
Visibility 8 miles    
Events Snow    
Averages and records for this station are not official NWS values.
T = Trace of Precipitation, MM = Missing Value Source: NWS Daily Summary

Daily Weather History Graph

Daily Weather History Graph

Search for Another Location

Airport or City:

Trip Planner

Search our weather history database for the weather conditions in past years. The results will help you decide how hot, cold, wet, or windy it might be!

Date:

Astronomy

Jan. 23, 2013 Rise Set
Actual Time 7:49 AM CST 5:15 PM CST
Civil Twilight 7:17 AM CST 5:48 PM CST
Nautical Twilight 6:41 AM CST 6:23 PM CST
Astronomical Twilight 6:06 AM CST 6:58 PM CST
Moon 2:24 PM CST (1/23) 5:04 AM CST (1/23)
Length of Visible Light 10h 30m
Length of Day
9h 26m
Waxing Gibbous, 89% of the Moon is Illuminated
Jan 23
Waxing Gibbous
Jan 26
Full
Feb 3
Last Quarter
Feb 10
New
Feb 17
First Quarter

Hourly Weather History & Observations

Time (CST) Temp. Windchill Dew Point Humidity Pressure Visibility Wind Dir Wind Speed Gust Speed Precip Events Conditions
12:15 AM 5.0 °F -4.1 °F -2.2 °F 72% 30.18 in 10.0 mi SSE 4.6 mph - N/A   Overcast
12:35 AM 5.0 °F -6.9 °F -2.2 °F 72% 30.17 in 10.0 mi SSE 6.9 mph - N/A Snow Light Snow
12:55 AM 5.0 °F -4.1 °F -2.2 °F 72% 30.17 in 10.0 mi SSE 4.6 mph - N/A Snow Light Snow
1:15 AM 6.8 °F -0.1 °F -0.4 °F 72% 30.16 in 10.0 mi SSE 3.5 mph - N/A Snow Light Snow
1:35 AM 6.8 °F -0.1 °F -0.4 °F 72% 30.16 in 5.0 mi SSE 3.5 mph - N/A Snow Light Snow
1:55 AM 6.8 °F - -0.4 °F 72% 30.16 in 4.0 mi Calm Calm - N/A Snow Light Snow
2:15 AM 6.8 °F -0.1 °F -0.4 °F 72% 30.16 in 5.0 mi SSE 3.5 mph - N/A Snow Light Snow
2:35 AM 6.8 °F -0.1 °F 1.4 °F 79% 30.16 in 3.0 mi SSE 3.5 mph - N/A Snow Light Snow
2:55 AM 6.8 °F - 1.4 °F 79% 30.15 in 3.0 mi Calm Calm - N/A Snow Light Snow
3:15 AM 6.8 °F - 1.4 °F 79% 30.14 in 4.0 mi Calm Calm - N/A Snow Light Snow
3:35 AM 6.8 °F - 1.4 °F 79% 30.15 in 5.0 mi Calm Calm - N/A Snow Light Snow
3:55 AM 6.8 °F - 1.4 °F 79% 30.14 in 3.0 mi Calm Calm - N/A Snow Light Snow
4:15 AM 6.8 °F - 1.4 °F 79% 30.14 in 2.0 mi Calm Calm - N/A Snow Light Snow
4:35 AM 6.8 °F - 1.4 °F 79% 30.13 in 2.5 mi Calm Calm - N/A Snow Light Snow
4:55 AM 6.8 °F - 1.4 °F 79% 30.13 in 4.0 mi Calm Calm - N/A Snow Light Snow
5:15 AM 3.2 °F - -0.4 °F 85% 30.14 in 7.0 mi Calm Calm - N/A   Scattered Clouds
5:35 AM 3.2 °F - -0.4 °F 85% 30.14 in 4.0 mi Calm Calm - N/A Snow Light Snow
5:55 AM 1.4 °F - -2.2 °F 85% 30.14 in 7.0 mi Calm Calm - N/A   Clear
6:15 AM 1.4 °F - -2.2 °F 85% 30.14 in 3.0 mi Calm Calm - N/A Snow Light Snow
6:35 AM 3.2 °F - -2.2 °F 78% 30.14 in 2.0 mi Calm Calm - N/A Snow Light Snow
6:55 AM 3.2 °F - -0.4 °F 85% 30.15 in 2.5 mi Calm Calm - N/A Snow Light Snow
7:16 AM 5.0 °F - 1.4 °F 85% 30.14 in 2.5 mi Calm Calm - N/A Snow Light Snow
7:35 AM 5.0 °F -4.1 °F -0.4 °F 78% 30.15 in 3.0 mi WNW 4.6 mph - N/A Snow Light Snow
7:55 AM 1.4 °F -6.2 °F -2.2 °F 85% 30.15 in 2.0 mi West 3.5 mph - N/A Snow Light Snow
8:16 AM 1.4 °F -8.3 °F -2.2 °F 85% 30.16 in 2.5 mi West 4.6 mph - N/A Snow Light Snow
8:35 AM 1.4 °F -8.3 °F -2.2 °F 85% 30.16 in 3.0 mi WNW 4.6 mph - N/A Snow Light Snow
8:55 AM 3.2 °F -10.3 °F -0.4 °F 85% 30.17 in 10.0 mi WNW 8.1 mph - N/A Snow Light Snow
9:16 AM 5.0 °F -12.3 °F -0.4 °F 78% 30.19 in 10.0 mi NW 13.8 mph - N/A   Clear
9:35 AM 5.0 °F -10.0 °F -0.4 °F 78% 30.20 in 10.0 mi WNW 10.4 mph - N/A   Clear
9:55 AM 5.0 °F -11.6 °F 1.4 °F 85% 30.21 in 10.0 mi WNW 12.7 mph - N/A   Clear
10:16 AM 5.0 °F -13.6 °F 1.4 °F 85% 30.22 in 10.0 mi NW 16.1 mph - N/A   Clear
10:35 AM 6.8 °F -10.7 °F 1.4 °F 79% 30.24 in 10.0 mi WNW 15.0 mph - N/A   Clear
10:55 AM 6.8 °F -14.3 °F -0.4 °F 72% 30.25 in 0.8 mi NW 23.0 mph - N/A Snow Light Snow
11:16 AM 5.0 °F -16.7 °F -2.2 °F 72% 30.25 in 5.0 mi NW 23.0 mph 28.8 mph N/A   Haze
11:35 AM 6.8 °F -14.7 °F -2.2 °F 67% 30.26 in 7.0 mi NW 24.2 mph - N/A   Clear
11:55 AM 6.8 °F -14.7 °F -2.2 °F 67% 30.27 in 7.0 mi NW 24.2 mph 29.9 mph N/A   Clear
12:16 PM 5.0 °F -17.1 °F -4.0 °F 66% 30.27 in 10.0 mi NW 24.2 mph - N/A   Clear
12:35 PM 5.0 °F -16.2 °F -4.0 °F 66% 30.27 in 5.0 mi NNW 21.9 mph 31.1 mph N/A   Haze
12:55 PM 5.0 °F -17.1 °F -5.8 °F 61% 30.27 in 5.0 mi NW 24.2 mph 29.9 mph N/A   Haze
1:16 PM 5.0 °F -15.7 °F -5.8 °F 61% 30.28 in 10.0 mi NW 20.7 mph 33.4 mph N/A   Clear
1:35 PM 5.0 °F -18.3 °F -5.8 °F 61% 30.30 in 10.0 mi NW 27.6 mph 31.1 mph N/A   Clear
1:55 PM 3.2 °F -18.6 °F -5.8 °F 66% 30.30 in 10.0 mi NW 21.9 mph 29.9 mph N/A   Scattered Clouds
2:15 PM 3.2 °F -19.5 °F -5.8 °F 66% 30.32 in 10.0 mi NNW 24.2 mph - N/A   Clear
2:35 PM 3.2 °F -20.7 °F -7.6 °F 61% 30.34 in 10.0 mi NNW 27.6 mph 31.1 mph N/A   Clear
3:15 PM 1.4 °F -21.4 °F -9.4 °F 61% 30.35 in 10.0 mi NW 23.0 mph - N/A   Clear
3:35 PM 1.4 °F -21.9 °F -9.4 °F 61% 30.37 in 10.0 mi NW 24.2 mph - N/A   Clear
3:55 PM -0.4 °F -24.7 °F -9.4 °F 66% 30.38 in 10.0 mi NW 25.3 mph 29.9 mph N/A   Clear
4:15 PM -0.4 °F -23.3 °F -11.2 °F 60% 30.41 in 10.0 mi NW 21.9 mph - N/A   Clear
4:35 PM -0.4 °F -22.8 °F -11.2 °F 60% 30.42 in 10.0 mi NW 20.7 mph - N/A   Clear
4:55 PM -2.2 °F -24.7 °F -13.0 °F 60% 30.44 in 10.0 mi NW 19.6 mph - N/A   Clear
5:15 PM -2.2 °F -24.7 °F -14.8 °F 55% 30.44 in 10.0 mi NW 19.6 mph - N/A   Clear
5:35 PM -4.0 °F -27.0 °F -14.8 °F 60% 30.46 in 10.0 mi NW 19.6 mph - N/A   Clear
5:55 PM -4.0 °F -26.4 °F -14.8 °F 60% 30.47 in 10.0 mi NW 18.4 mph - N/A   Clear
6:15 PM -5.8 °F -29.4 °F -14.8 °F 65% 30.47 in 10.0 mi NW 19.6 mph - N/A   Clear
6:35 PM -5.8 °F -27.5 °F -16.6 °F 60% 30.48 in 10.0 mi NW 16.1 mph - N/A   Clear
6:55 PM -5.8 °F -26.8 °F -16.6 °F 60% 30.49 in 10.0 mi NW 15.0 mph - N/A   Clear
7:15 PM -7.6 °F -29.1 °F -16.6 °F 65% 30.50 in 10.0 mi NW 15.0 mph - N/A   Clear
7:35 PM -7.6 °F -27.5 °F -16.6 °F 65% 30.50 in 10.0 mi NW 12.7 mph - N/A   Clear
7:55 PM -7.6 °F -26.6 °F -16.6 °F 65% 30.51 in 10.0 mi NNW 11.5 mph - N/A   Clear
8:15 PM -7.6 °F -24.6 °F -16.6 °F 65% 30.52 in 10.0 mi NW 9.2 mph - N/A   Clear
8:35 PM -9.4 °F -27.9 °F -18.4 °F 65% 30.53 in 10.0 mi NNW 10.4 mph - N/A   Clear
8:55 PM -9.4 °F -25.6 °F -18.4 °F 65% 30.53 in 10.0 mi NW 8.1 mph - N/A   Clear
9:15 PM -9.4 °F -25.6 °F -18.4 °F 65% 30.54 in 10.0 mi NNW 8.1 mph - N/A   Clear
9:35 PM -7.6 °F -27.5 °F -18.4 °F 59% 30.55 in 10.0 mi NNW 12.7 mph - N/A   Clear
9:55 PM -7.6 °F -26.6 °F -18.4 °F 59% 30.56 in 10.0 mi NNW 11.5 mph - N/A   Clear
10:15 PM -7.6 °F -25.7 °F -18.4 °F 59% 30.56 in 10.0 mi North 10.4 mph - N/A   Clear
10:35 PM -9.4 °F -26.8 °F -18.4 °F 65% 30.57 in 10.0 mi North 9.2 mph - N/A   Clear
10:55 PM -9.4 °F -26.8 °F -18.4 °F 65% 30.57 in 10.0 mi NNE 9.2 mph - N/A   Clear
11:15 PM -9.4 °F -26.8 °F -18.4 °F 65% 30.58 in 10.0 mi North 9.2 mph - N/A   Clear
11:35 PM -9.4 °F -22.7 °F -18.4 °F 65% 30.59 in 10.0 mi North 5.8 mph - N/A   Clear
11:55 PM -9.4 °F -24.3 °F -18.4 °F 65% 30.59 in 10.0 mi NNE 6.9 mph - N/A   Clear